GFSFLT2_850_temp_084.txt.gz
Temp
16 15 14 14 14 14 14 14 15 14 14 15 14 12 12 13 13 13 14 13 14 13 13 12 12 11 12 12 12 12 12 12
16 15 14 13 13 13 13 13 14 14 14 14 14 13 12 13 13 13 14 13 13 13 12 12 11 11 12 12 12 12 12 13
15 14 13 13 13 13 13 13 13 13 13 12 12 12 12 12 13 14 13 13 13 13 12 12 11 11 12 12 12 12 12 13
15 14 13 13 13 13 13 13 12 13 13 11 11 12 12 12 13 13 13 13 13 12 12 12 11 12 12 12 12 12 13 13
16 15 13 13 13 13 13 12 12 13 12 11 11 11 11 12 12 12 13 13 12 12 12 12 11 11 11 12 12 12 12 13
16 15 14 13 12 12 12 12 12 12 13 12 13 11 12 12 12 12 13 13 13 12 12 12 11 11 11 12 12 12 12 12
16 14 13 12 12 12 12 12 12 12 12 11 11 12 13 12 12 13 13 13 13 13 12 12 11 11 11 12 11 11 12 12
16 14 12 12 12 12 12 12 12 12 12 12 12 12 13 12 13 13 13 13 13 13 12 12 12 11 11 11 11 11 11 11
15 14 13 11 12 12 12 12 12 12 12 12 11 12 13 13 13 13 13 13 13 13 12 12 12 11 11 11 11 11 11 11
15 14 13 12 12 12 12 12 11 11 11 11 11 12 12 13 12 13 13 13 12 12 12 12 12 12 11 11 11 11 11 11
15 14 12 11 12 12 12 11 10 11 11 11 11 11 12 12 12 13 12 12 12 12 11 12 12 12 10 11 11 11 11 11
15 13 11 11 11 11 12 11 10 10 11 11 11 11 11 11 11 12 12 12 12 11 12 11 12 12 10 10 10 10 10 10
15 15 11 10 11 10 10 11 10 10 11 11 11 11 10 11 11 12 12 11 11 12 11 11 11 11 10 10 10 10 10 10
15 14 12 10 10 10 10 11 10 10 10 10 10 10 10 10 10 11 11 11 11 12 11 11 11 10 10 10 9 9 9 10
16 15 14 10 10 10 9 10 10 10 9 10 10 10 10 9 10 10 11 11 11 11 11 11 11 10 11 10 10 10 9 9
15 15 14 10 10 10 10 10 10 9 10 9 10 9 9 9 9 10 10 11 11 11 11 11 11 11 10 11 11 11 10 10
15 14 14 12 11 9 10 10 11 11 10 10 10 10 9 9 9 9 10 11 11 10 10 11 11 11 11 11 11 11 11 11
15 14 14 12 9 9 9 10 11 11 11 10 10 10 9 9 9 9 10 10 10 10 10 11 11 11 11 11 11 11 11 11
15 14 14 13 9 9 9 9 10 10 10 10 10 10 10 10 10 10 10 11 10 10 10 11 11 11 11 11 11 11 11 11
16 15 14 14 12 9 9 9 9 10 11 10 10 10 10 10 10 10 10 10 10 10 10 10 11 11 11 11 11 11 11 11

GFSFLT2_850_temp_087.txt.gz
Temp
17 15 15 15 15 14 14 14 15 13 13 14 14 14 15 14 13 13 13 13 13 13 13 13 12 13 13 13 13 13 12 12
16 15 14 13 14 14 14 14 13 13 13 14 13 14 14 14 13 12 13 13 13 12 12 12 12 12 12 12 12 12 12 12
16 14 12 13 13 13 13 13 13 13 14 13 13 13 13 13 13 12 12 13 13 12 12 12 12 12 12 12 12 12 12 11
16 15 13 12 13 13 13 13 13 13 13 13 13 13 12 13 12 12 12 12 12 11 11 11 11 11 11 12 12 12 12 11
17 15 13 12 13 13 13 13 12 13 13 13 13 12 12 11 12 11 12 12 12 11 11 11 11 12 12 12 12 12 12 11
17 16 14 13 13 13 12 13 12 12 13 13 11 11 11 11 12 11 12 11 12 11 11 11 11 12 12 12 12 12 11 12
17 16 15 13 13 12 12 12 12 12 12 12 12 10 10 11 11 11 12 11 12 11 11 11 11 11 11 11 12 11 11 12
17 16 15 14 12 12 12 12 12 11 12 11 10 11 11 11 12 12 12 11 11 11 11 11 11 11 11 11 12 11 11 11
17 16 15 14 13 11 11 11 12 11 12 11 11 11 12 12 12 12 12 12 11 11 11 11 11 11 12 11 11 11 11 11
16 16 15 14 12 12 11 11 11 11 11 11 11 11 12 12 12 12 13 12 12 11 11 11 11 11 12 11 11 11 11 11
16 16 15 13 13 12 12 11 11 11 11 10 11 11 11 12 12 12 12 12 12 12 11 11 11 11 11 11 11 11 10 11
16 15 14 13 12 11 12 11 10 10 11 11 10 11 11 11 12 12 12 12 12 11 11 11 11 11 11 11 11 10 10 10
16 15 14 14 12 11 12 10 10 10 11 11 11 11 11 11 10 11 12 11 12 12 11 11 11 11 11 10 10 10 10 10
16 15 15 14 13 11 11 11 10 10 10 10 11 11 11 10 10 10 11 11 12 12 11 11 11 11 10 10 9 8 9 9
17 15 15 13 12 11 10 10 10 10 10 10 10 11 10 10 10 9 10 11 11 11 11 11 11 11 10 11 9 10 9 9
17 16 15 13 11 11 10 10 9 9 10 10 10 10 11 10 10 10 9 10 11 11 12 11 11 11 10 10 11 11 10 9
16 15 14 14 11 11 10 10 10 10 9 10 9 10 10 10 10 10 8 10 10 11 11 11 11 11 11 11 10 11 11 11
16 15 14 14 12 10 10 10 10 10 10 9 9 10 10 10 10 9 9 10 9 10 10 11 11 11 11 11 11 11 11 11
16 15 14 15 13 10 9 10 10 10 10 10 9 9 10 9 9 9 9 9 9 10 10 10 10 10 11 11 11 11 11 11
17 16 14 15 14 11 10 10 10 11 11 11 11 10 10 10 9 9 9 9 10 10 10 10 10 10 10 10 11 11 11 11

GFSFLT2_850_temp_090.txt.gz
Temp
18 16 15 14 14 14 14 14 14 14 15 14 14 14 13 13 14 13 14 13 13 13 13 13 13 13 12 12 12 12 12 12
17 16 15 14 14 14 14 13 13 13 14 14 13 13 13 14 13 13 13 13 13 13 12 12 12 12 12 12 11 11 11 11
17 16 15 13 13 13 13 13 13 12 12 13 14 14 14 13 13 13 12 12 12 12 12 12 12 12 12 11 11 11 11 12
17 16 14 13 12 13 13 13 13 12 12 12 13 14 14 14 13 13 12 12 12 12 12 12 12 12 11 11 11 12 11 11
18 16 15 14 13 12 12 12 12 12 12 13 13 13 13 13 12 13 12 11 12 11 11 11 12 12 12 11 11 11 11 11
17 17 15 15 13 12 13 13 12 12 12 12 12 13 12 12 12 12 11 10 12 11 12 11 11 12 12 11 11 11 11 11
17 17 16 15 15 13 12 12 12 12 12 12 12 11 13 12 12 11 11 10 12 12 11 11 11 12 11 11 11 12 12 11
17 17 16 15 14 13 12 12 12 12 12 12 12 12 12 12 12 11 11 11 12 12 11 11 11 11 11 11 11 11 11 11
17 16 15 14 14 13 12 11 12 12 12 11 11 11 10 11 11 11 11 11 12 11 10 11 11 11 11 11 11 11 11 11
17 16 15 14 13 12 12 11 12 12 12 11 11 11 10 10 11 11 11 11 11 10 10 10 11 11 11 11 11 11 11 10
17 16 15 14 13 12 12 11 11 11 11 11 10 11 11 11 11 11 11 11 11 10 10 10 11 11 11 11 11 10 11 10
17 16 15 14 12 12 12 11 11 11 11 11 10 10 11 11 12 12 11 11 11 10 10 10 11 11 11 10 10 10 10 10
17 16 15 14 13 12 12 12 10 11 11 11 10 11 11 11 11 12 10 12 11 10 10 10 10 11 11 9 9 9 10 10
17 16 15 15 14 12 12 13 11 10 10 10 11 10 11 11 11 11 11 11 10 10 10 10 10 10 10 10 9 9 9 9
17 16 15 15 14 12 11 11 10 10 10 10 10 11 11 10 10 10 11 10 11 11 10 10 10 10 10 11 9 9 9 9
17 16 16 14 14 12 12 12 10 10 10 10 10 10 11 11 10 10 10 9 10 11 10 10 10 10 10 11 11 11 10 10
18 17 16 15 14 13 11 10 10 10 10 10 10 10 10 10 10 9 9 9 8 11 11 10 10 11 11 10 10 11 11 11
17 17 16 15 14 13 11 10 10 9 9 9 10 10 10 10 10 9 9 9 9 9 10 11 10 10 11 11 12 12 11 11
16 17 16 16 15 13 12 10 10 10 10 9 9 9 10 10 10 10 9 9 9 8 9 10 10 10 11 11 11 11 11 11
16 17 15 16 15 14 12 11 10 9 9 10 9 9 9 10 10 10 10 9 9 9 9 10 10 10 10 10 10 10 11 11

GFSFLT2_850_temp_096.txt.gz
Temp
20 19 19 18 16 14 15 15 15 15 15 15 15 15 14 15 15 15 15 14 13 13 12 13 14 14 14 13 13 13 12 12
20 19 18 16 15 14 14 15 15 15 15 15 15 15 14 14 15 15 14 14 13 13 12 13 13 13 13 13 13 13 12 12
19 19 18 15 15 14 14 14 14 14 14 14 15 15 15 15 15 14 14 13 13 13 12 12 13 13 13 12 12 12 12 12
19 18 18 17 15 15 14 13 13 14 14 14 14 14 14 13 14 13 12 12 12 12 11 11 13 12 12 12 12 12 12 13
18 19 18 16 16 14 14 13 14 13 13 14 13 12 12 13 13 12 13 12 11 11 11 11 12 12 12 11 11 11 12 12
18 18 18 17 14 14 14 13 13 13 13 13 13 13 13 13 13 12 11 11 11 11 11 11 12 11 11 11 11 12 12 12
18 18 18 17 15 14 14 13 13 12 13 12 12 13 13 13 12 11 12 11 12 12 11 11 11 11 10 10 11 11 11 11
18 18 18 17 17 16 14 13 12 12 12 12 12 12 12 12 12 11 12 12 11 11 12 11 11 10 10 10 10 10 10 10
15 18 18 17 17 16 14 13 13 12 12 12 12 12 12 12 12 12 12 11 11 11 11 11 11 11 10 10 10 10 10 10
15 17 18 17 17 17 15 13 12 12 12 12 12 12 12 11 11 11 11 11 11 11 11 10 10 10 10 10 10 10 10 10
15 16 18 17 16 16 15 13 12 12 12 12 12 12 11 11 11 11 11 11 11 11 11 10 10 10 11 10 10 10 10 10
15 14 17 17 16 16 15 13 12 12 11 11 11 11 11 11 10 11 11 10 10 11 10 11 10 10 11 10 10 10 10 9
16 14 17 17 17 16 15 12 12 11 11 11 11 11 11 10 10 10 10 10 10 10 10 10 10 10 10 9 9 9 9 9
16 15 17 17 17 16 15 14 12 11 11 11 11 11 11 10 10 10 10 10 10 10 9 10 10 10 9 9 8 8 9 8
16 15 17 17 16 15 15 13 11 10 10 11 11 11 10 11 10 10 10 10 10 10 9 9 10 10 10 11 9 10 10 9
15 14 16 16 16 16 15 13 12 10 11 10 10 10 10 10 10 10 10 10 10 10 10 10 10 9 10 11 11 12 11 9
14 12 14 16 17 15 15 12 12 9 11 10 10 10 11 10 10 10 10 10 10 11 10 10 10 10 10 9 10 10 11 12
13 12 13 16 16 15 14 11 11 10 10 10 10 10 10 10 10 10 11 11 11 10 11 10 11 10 11 10 10 10 10 11
12 12 13 15 15 15 15 13 10 10 9 10 10 10 10 10 10 10 10 10 10 10 10 10 10 10 10 10 10 10 11 11
12 12 12 14 15 15 15 11 13 10 10 10 10 10 10 11 10 10 10 10 10 10 9 9 9 9 8 9 9 10 10 10

GFSFLT2_850_temp_102.txt.gz
Temp
22 22 22 21 20 20 18 17 16 16 16 16 15 15 15 15 14 14 14 14 15 14 14 15 15 12 13 13 13 13 13 13
22 22 21 21 20 19 18 17 16 16 16 16 15 15 15 15 14 14 14 14 14 14 14 14 14 13 12 13 14 14 13 14
21 21 21 21 21 19 18 17 16 16 16 15 15 14 14 14 14 14 14 14 14 14 13 14 14 14 13 12 13 13 13 13
20 20 20 20 19 19 17 17 17 16 16 15 14 14 14 14 14 14 13 14 13 13 13 13 14 12 13 12 12 12 13 12
20 20 20 19 18 19 17 16 16 16 15 15 15 14 14 13 13 13 13 13 12 13 13 13 13 13 12 13 12 13 13 12
19 20 20 18 16 18 17 15 15 14 15 15 14 14 14 13 13 13 13 13 13 13 13 13 12 12 13 13 12 13 12 12
20 20 20 18 16 17 16 15 14 15 14 14 15 14 13 13 13 13 12 12 12 12 12 12 12 12 12 12 13 13 12 13
22 21 19 18 17 17 17 17 15 15 15 15 15 14 13 13 13 13 13 13 13 12 13 12 12 12 12 12 13 13 11 13
21 22 20 19 17 17 17 18 17 15 15 14 14 14 14 14 13 13 13 13 13 13 13 12 12 12 12 11 13 13 12 12
21 21 21 20 17 15 18 17 16 14 15 14 14 14 14 14 14 13 13 13 12 13 13 12 11 12 11 11 12 12 13 11
21 21 22 20 18 15 15 17 16 15 14 13 13 14 13 13 13 13 12 12 12 12 13 12 11 11 11 11 12 12 12 12
21 21 21 20 18 15 14 14 15 15 13 13 13 13 13 13 13 13 12 12 12 12 12 12 11 12 11 11 12 12 11 12
22 20 20 20 18 17 14 15 15 16 15 13 12 13 13 13 12 12 12 11 11 12 12 12 11 11 11 11 12 12 11 12
22 20 19 20 18 17 14 13 15 16 15 14 13 13 12 12 12 12 12 11 11 11 11 11 11 11 10 11 11 11 11 11
22 21 19 19 18 15 13 13 12 13 12 13 12 12 12 12 12 12 10 11 11 11 11 11 11 10 10 11 10 10 10 10
21 21 20 18 18 16 13 13 13 12 12 12 12 12 12 12 12 11 11 10 10 10 11 11 10 10 10 11 11 12 10 9
20 20 20 19 18 17 15 13 13 13 12 12 12 12 12 11 11 11 10 10 10 10 10 10 10 10 10 11 11 12 12 12
18 19 19 19 18 17 15 14 14 13 12 12 12 12 12 12 11 11 10 10 10 10 10 10 10 10 10 10 11 12 11 12
16 18 19 18 18 16 15 14 14 14 13 13 13 13 12 11 11 11 10 10 10 10 10 10 10 10 10 10 11 12 12 12
14 16 18 17 16 15 15 14 14 14 14 13 12 13 13 11 11 10 10 10 10 10 10 10 10 9 10 10 10 11 11 11

GFSFLT2_850_temp_105.txt.gz
Temp
22 22 22 22 21 20 20 18 18 17 17 17 16 15 15 14 14 15 15 15 16 15 15 15 14 15 13 13 13 13 13 13
22 22 22 22 21 20 20 19 18 17 17 16 16 15 14 14 14 15 15 15 15 15 15 15 14 14 14 13 13 13 13 13
21 21 22 22 21 20 20 19 18 17 17 16 15 15 14 14 14 15 14 14 14 14 14 14 14 14 14 13 13 13 12 13
21 21 21 21 21 20 20 19 18 17 17 16 15 15 14 14 14 14 14 13 13 13 13 14 14 14 15 14 13 12 12 13
20 21 20 21 21 20 20 19 18 17 16 16 15 15 14 14 13 13 13 13 13 13 13 14 14 14 14 14 13 12 12 13
20 19 19 21 20 20 20 19 18 17 16 16 15 15 14 14 13 13 13 13 13 13 13 14 14 14 13 13 12 12 12 12
21 20 19 20 19 19 19 19 18 17 16 16 15 15 14 14 13 13 13 13 13 13 13 14 13 13 13 13 12 12 12 12
22 22 20 19 20 19 19 19 17 16 17 15 15 15 14 14 13 13 13 13 13 13 13 13 13 12 12 12 12 12 12 12
22 22 20 20 19 18 18 18 18 17 16 16 15 14 14 14 13 13 13 13 12 12 13 12 12 12 12 12 12 11 12 12
22 22 22 20 20 20 18 18 17 18 17 16 16 15 14 14 13 13 13 12 12 12 13 13 13 12 11 12 12 11 12 12
22 22 21 21 19 20 19 17 17 18 16 16 16 14 14 13 13 13 14 13 13 13 13 13 13 12 11 12 11 10 12 11
23 22 22 21 19 19 19 15 15 16 16 16 15 15 14 13 13 13 13 13 13 12 12 12 13 12 11 11 11 10 11 11
23 21 21 20 18 18 18 17 14 14 14 15 15 14 14 14 13 13 13 12 12 12 12 12 12 11 11 10 10 10 10 11
22 22 21 20 20 19 18 17 14 13 13 14 14 14 14 14 14 13 12 12 12 11 12 11 11 11 10 10 10 9 11 11
20 21 20 21 20 19 17 16 13 13 13 13 13 14 13 13 13 12 12 12 12 12 12 11 11 11 11 10 10 10 11 10
18 18 19 20 20 19 20 19 17 13 12 13 13 13 12 12 12 12 12 12 12 11 11 11 10 11 10 10 11 11 11 11
18 17 16 19 19 19 19 19 17 16 13 12 12 12 12 11 11 11 11 11 11 11 10 11 11 11 11 10 10 11 11 11
17 17 18 14 18 19 18 18 18 15 13 13 12 12 12 11 11 11 11 11 11 10 10 11 10 10 11 10 10 11 11 12
17 17 17 15 15 18 18 18 17 16 14 14 12 12 12 12 12 11 11 11 10 10 10 10 10 10 10 10 10 10 11 12
14 16 16 14 13 17 18 17 15 15 14 14 13 13 13 12 12 11 11 11 10 10 10 10 10 10 10 10 9 10 10 11

GFSFLT2_850_temp_108.txt.gz
Temp
22 22 22 21 22 21 20 20 18 17 17 16 16 15 15 16 15 15 15 16 15 15 16 15 15 14 14 13 13 14 13 13
22 22 22 21 21 21 20 19 18 17 17 17 16 15 15 15 15 15 15 15 16 15 16 16 15 14 13 13 13 14 14 13
22 22 22 21 21 21 20 19 18 17 17 17 16 16 15 15 15 14 14 15 15 15 15 15 14 14 14 14 13 13 13 13
21 21 21 21 21 21 20 19 18 17 17 16 16 16 15 15 15 14 14 14 15 15 15 15 14 13 13 14 13 13 13 13
21 20 20 21 21 21 20 19 18 17 16 16 16 15 15 15 14 14 14 14 14 14 14 14 14 13 13 13 13 13 14 13
22 21 20 20 20 20 20 20 19 18 17 16 16 15 15 14 14 14 14 14 14 14 14 14 14 13 13 13 13 13 13 13
22 21 21 20 19 19 19 19 19 18 17 16 15 15 15 15 14 14 14 14 14 14 14 14 13 14 13 12 12 12 13 13
21 21 21 21 21 19 19 19 19 18 18 17 15 15 15 15 14 14 12 13 13 13 13 13 13 13 13 12 12 12 13 12
21 21 21 21 21 19 19 19 18 18 18 17 16 15 15 14 14 14 14 13 12 12 13 13 13 12 12 12 12 12 12 12
21 21 21 20 20 20 19 19 18 18 17 17 16 15 14 14 14 14 14 13 12 13 12 12 12 12 11 11 11 12 12 11
23 21 21 21 20 20 19 18 18 17 16 16 16 15 14 14 14 14 14 13 12 12 13 13 12 12 13 11 11 11 11 11
23 23 21 20 19 18 17 16 17 17 16 16 15 15 14 14 14 13 13 13 13 13 12 12 12 13 13 12 11 11 11 11
23 23 22 19 19 18 16 17 17 16 16 16 15 15 14 14 13 13 13 13 12 12 12 12 12 12 12 11 10 10 11 11
23 23 23 22 19 19 18 18 17 17 17 16 15 14 14 14 14 13 12 12 12 12 12 12 11 12 11 10 10 10 10 10
19 20 22 21 20 18 17 17 16 15 15 15 15 13 13 13 13 13 13 12 12 12 11 11 11 11 11 11 10 9 10 10
15 15 17 16 15 18 17 19 18 18 18 16 15 13 13 13 13 13 13 12 12 12 11 11 11 11 10 10 10 11 9 9
14 14 15 14 15 17 17 17 17 17 17 16 13 12 12 12 12 12 12 12 12 12 11 11 11 12 12 10 10 10 10 11
15 15 13 13 14 15 17 17 18 17 17 16 14 13 13 12 12 11 11 11 11 11 11 11 11 11 11 10 10 10 10 11
13 14 16 15 15 15 14 16 17 18 18 17 16 14 12 12 11 12 11 12 11 10 10 10 10 10 11 10 10 11 11 12
14 14 14 15 15 16 16 14 15 17 17 17 16 15 14 12 12 12 11 11 10 10 10 10 10 10 10 10 10 10 11 11

GFSFLT2_850_temp_114.txt.gz
Temp
22 22 21 21 21 21 19 19 18 17 17 17 16 16 16 16 16 16 16 16 16 16 16 16 15 15 15 14 14 14 14 14
22 21 21 21 20 20 20 19 18 17 16 16 16 16 16 16 16 16 16 15 15 15 15 15 15 15 14 14 14 14 13 13
22 21 21 21 20 20 20 19 18 17 16 16 16 16 16 16 16 15 15 15 15 15 15 15 14 14 14 14 13 14 13 13
21 21 21 21 20 20 20 19 18 17 17 16 16 16 16 16 15 15 15 15 14 14 14 14 14 14 13 13 13 14 13 13
21 21 21 21 21 20 20 19 19 18 17 16 16 16 16 16 15 15 14 14 14 14 14 14 14 14 13 13 13 13 13 13
21 21 21 21 21 21 20 20 19 18 17 17 16 16 16 16 15 15 14 14 14 14 14 14 14 14 13 13 13 13 13 13
21 21 21 20 21 20 20 20 19 19 18 17 17 16 16 16 15 15 14 14 14 14 14 14 14 14 13 13 13 13 13 13
20 21 21 20 21 21 21 20 20 18 18 18 17 16 16 16 16 15 15 15 14 14 14 14 14 14 13 13 13 12 12 12
20 20 21 20 20 20 20 20 20 19 18 18 17 16 16 15 16 16 15 15 14 14 14 13 13 13 13 13 12 12 12 12
19 20 20 20 20 20 20 20 20 19 18 18 17 17 16 15 15 15 15 15 14 13 13 13 13 13 13 13 12 12 12 12
19 20 20 21 20 19 19 19 19 19 18 18 17 17 16 15 15 15 15 14 14 13 13 12 12 12 12 12 12 12 12 11
20 20 21 20 19 18 17 18 18 19 18 17 17 17 16 15 15 15 14 14 13 13 13 12 12 12 12 12 12 11 11 11
19 20 20 20 18 18 17 18 19 18 18 17 17 16 16 15 15 14 14 14 13 13 12 12 12 12 11 11 11 10 10 10
17 19 19 19 19 18 18 18 18 18 18 17 16 16 16 15 15 15 14 13 13 12 12 12 12 11 11 10 10 10 10 10
17 18 18 18 19 18 17 16 16 16 16 17 17 16 15 15 15 15 14 13 13 13 12 12 11 11 12 10 10 10 10 10
17 19 18 17 16 16 16 16 17 18 18 17 16 16 15 15 14 14 14 12 13 12 12 12 12 11 11 10 10 10 10 10
13 14 17 15 13 13 15 14 16 17 17 16 16 16 16 15 15 14 14 12 13 11 11 12 12 12 12 11 11 11 10 11
11 11 12 13 12 13 13 13 14 16 15 16 17 17 17 16 15 14 13 13 12 12 12 11 11 11 11 11 11 10 10 10
9 10 11 12 12 12 13 13 13 14 15 17 18 18 17 17 16 15 13 12 12 12 12 12 11 11 10 10 10 10 10 10
8 10 11 12 12 12 12 12 13 14 15 15 17 17 17 17 16 15 14 13 12 12 11 11 11 11 10 10 10 10 10 10

GFSFLT2_850_temp_117.txt.gz
Temp
22 21 21 20 20 20 19 18 17 17 17 17 17 17 17 17 16 16 16 16 16 15 16 16 16 16 15 15 14 14 14 14
22 21 21 20 20 19 19 18 17 17 17 17 17 17 17 16 16 16 16 15 15 15 15 16 15 15 15 14 14 14 13 14
21 21 21 21 20 19 19 18 17 16 16 17 17 16 16 16 16 16 15 15 15 15 15 15 15 15 14 14 13 14 13 13
21 21 21 20 20 19 18 18 17 16 16 16 16 16 16 16 15 15 15 15 15 15 15 14 14 14 14 13 13 13 13 13
20 20 21 20 20 19 18 17 18 17 16 16 16 16 16 15 15 14 14 14 14 14 14 14 14 14 14 13 13 13 13 13
20 19 20 20 20 20 19 18 18 18 17 16 16 16 16 15 15 14 14 14 14 14 14 14 14 14 13 13 13 13 13 13
19 19 19 20 20 20 20 19 18 18 18 17 16 16 16 16 15 14 14 14 14 14 14 14 14 14 14 13 13 13 13 13
19 19 20 19 20 20 20 20 19 18 18 18 17 16 16 16 15 15 14 14 14 14 14 14 14 14 14 13 13 13 12 12
19 19 19 19 20 20 20 20 20 18 18 18 17 17 16 16 16 15 14 14 14 14 13 13 14 14 14 13 13 13 12 12
19 19 19 19 19 19 19 19 19 19 18 18 18 17 16 16 16 15 15 14 14 14 14 13 13 13 13 13 13 13 12 12
19 18 19 19 19 18 19 19 19 19 18 18 18 18 16 16 15 15 15 14 14 13 13 13 13 13 13 13 13 13 12 12
18 19 19 19 18 18 18 18 18 18 18 18 18 18 18 16 15 15 15 14 14 13 13 13 13 13 12 12 12 12 12 12
15 16 18 18 18 17 17 17 17 17 18 17 17 18 18 17 15 15 14 14 14 14 13 13 12 12 12 12 12 12 11 11
13 14 16 18 19 18 17 18 17 17 17 17 17 17 17 17 17 15 14 14 14 13 13 13 12 12 11 11 11 11 11 10
13 14 15 17 18 17 17 18 16 16 17 17 17 17 17 17 17 16 15 14 14 13 13 13 12 12 11 11 10 10 11 11
13 14 14 15 17 18 18 19 18 18 18 17 17 16 17 16 16 16 15 14 14 13 13 12 12 11 12 11 11 11 10 10
10 12 14 14 15 15 17 17 17 17 17 16 16 16 16 16 16 16 15 15 14 13 12 12 12 12 12 12 11 12 10 10
9 10 12 13 13 14 14 14 14 14 15 16 16 17 17 16 17 16 16 15 14 14 12 11 11 12 12 12 12 12 10 10
8 9 10 10 11 12 12 12 13 13 13 14 14 16 17 17 17 17 16 16 15 14 13 11 11 11 11 12 11 11 11 10
7 8 9 10 11 11 12 12 12 13 13 13 13 14 17 17 15 17 17 16 15 14 13 12 12 12 11 11 11 11 11 11

GFSFLT2_850_temp_123.txt.gz
Temp
18 19 18 18 18 19 19 19 19 18 18 18 17 17 17 17 17 16 16 16 16 16 16 16 16 16 16 16 15 15 15 14
17 16 18 18 18 18 18 18 18 18 17 17 17 17 16 16 16 16 16 16 16 16 16 16 16 16 15 15 15 15 15 14
17 17 16 16 15 17 18 18 17 17 17 17 16 16 16 16 16 16 16 16 16 15 15 16 15 15 15 15 14 13 13 14
16 16 16 16 16 16 17 17 17 16 16 17 16 15 15 15 14 15 15 15 15 15 15 15 15 14 15 15 14 14 14 14
18 16 15 16 16 16 15 15 15 14 14 15 15 15 15 15 15 15 15 15 15 15 15 15 15 14 14 13 13 13 14 14
19 16 15 15 16 15 16 16 16 16 15 14 15 15 15 15 14 14 14 14 14 14 14 14 14 14 14 14 14 13 14 14
19 18 15 14 15 16 16 16 17 17 15 14 15 15 15 14 15 14 14 14 14 14 14 14 14 14 14 13 14 14 13 13
18 18 17 15 14 15 16 16 15 16 15 15 15 15 15 15 15 14 14 14 14 14 14 14 14 14 14 13 13 13 13 13
18 18 18 15 14 14 16 16 15 18 18 15 15 15 15 15 15 14 15 14 14 14 14 13 14 14 14 14 13 13 13 13
17 17 18 16 15 14 15 15 14 18 19 17 15 15 15 15 15 14 15 14 14 14 14 13 14 14 14 14 14 14 13 13
16 16 17 17 15 14 14 15 14 15 16 18 15 15 14 15 15 14 15 14 14 13 13 14 14 14 14 14 14 14 13 13
15 16 17 17 15 15 14 15 14 14 15 15 18 16 14 15 15 15 16 14 15 14 14 13 13 14 13 14 13 13 13 13
14 14 16 16 16 15 14 14 14 15 16 16 16 18 16 15 15 15 15 14 15 15 15 13 14 13 13 13 13 13 13 12
12 12 12 13 15 15 15 14 15 16 17 16 15 18 18 15 16 16 16 14 15 15 15 14 13 13 13 13 12 13 13 13
8 9 10 11 14 16 15 15 16 16 16 16 15 15 17 16 16 16 16 15 16 14 15 15 13 13 13 13 13 15 16 13
6 4 8 10 11 14 16 15 16 17 17 16 15 14 16 17 16 16 16 15 16 15 15 15 14 13 13 12 13 15 16 16
2 4 5 8 12 14 15 15 17 16 16 16 16 14 14 17 17 16 16 16 16 15 15 14 15 13 12 12 12 13 14 13
1 3 4 7 10 14 16 15 16 17 16 16 15 14 14 13 16 17 17 17 16 15 14 14 15 14 12 12 12 13 13 13
-0 1 4 8 9 12 13 13 14 15 15 15 14 14 14 13 13 14 16 17 16 15 15 14 14 14 13 12 13 12 13 13
-2 -0 2 7 7 10 12 13 13 13 14 12 14 14 13 13 13 13 14 14 15 13 14 13 12 12 12 13 13 13 13 13

GFSFLT2_850_temp_126.txt.gz
Temp
18 18 18 19 19 18 18 18 18 18 18 18 18 18 17 17 17 17 16 16 16 16 16 16 15 16 16 16 16 15 15 14
18 17 18 18 18 18 18 18 18 18 18 18 18 17 17 17 16 16 16 16 16 16 16 16 15 16 16 15 15 15 15 14
18 17 17 18 18 18 18 18 17 17 17 17 17 17 16 16 16 16 16 16 16 16 15 16 16 16 16 15 15 15 15 14
19 18 17 17 17 17 18 17 17 18 17 17 17 16 16 16 16 16 16 16 15 15 15 15 16 16 16 15 15 14 14 14
20 19 18 17 16 16 17 17 17 17 17 17 16 16 15 15 15 15 15 15 16 15 15 15 16 15 15 15 15 13 14 14
19 19 18 18 17 17 16 16 16 17 18 17 17 16 16 15 15 15 15 15 15 15 15 15 15 14 14 14 14 14 13 13
18 18 18 17 17 17 16 16 15 16 16 17 16 16 15 15 15 15 15 15 15 15 15 15 14 14 14 15 14 14 14 14
16 17 18 17 17 17 16 15 16 16 16 16 17 16 16 15 15 15 14 14 14 14 14 14 14 14 14 14 13 13 13 13
16 16 17 17 16 16 16 15 16 16 16 16 16 16 16 16 15 15 15 14 14 14 14 14 14 14 14 14 14 13 14 13
16 16 16 17 17 16 16 16 15 16 16 15 16 16 16 15 15 15 15 15 14 14 14 14 14 14 14 14 14 14 14 14
13 16 16 16 16 16 15 16 16 15 15 16 15 15 16 16 15 15 15 15 15 14 14 14 14 15 14 14 14 14 14 14
12 13 14 15 16 16 16 16 15 15 15 16 14 15 15 15 15 15 15 15 14 14 14 14 14 14 14 15 14 13 13 14
10 11 13 13 14 15 15 15 15 15 15 15 15 16 16 14 15 15 15 14 14 14 14 14 14 14 14 14 14 14 14 13
5 8 10 11 11 12 13 13 14 15 14 15 15 17 17 15 14 14 16 15 14 14 13 14 14 14 14 14 13 14 13 14
2 6 7 9 10 11 11 12 12 14 14 15 15 16 16 17 16 14 15 16 14 13 13 14 13 13 13 14 13 14 15 15
1 -0 6 7 9 10 10 9 10 13 14 15 16 16 17 17 16 14 15 15 15 14 13 14 14 13 13 13 14 15 15 14
-2 -1 2 6 6 9 10 12 13 12 14 15 16 16 16 16 16 14 14 15 16 15 13 14 14 13 14 14 13 15 14 14
-2 -1 0 3 3 6 7 10 13 12 14 16 16 15 15 16 16 13 14 13 16 16 14 13 14 13 13 13 13 12 13 13
-3 -1 -0 1 3 4 6 8 10 12 13 16 16 15 14 16 15 13 14 13 14 14 14 13 13 13 13 12 12 12 13 13
-3 -2 -1 1 3 4 7 8 11 12 12 12 16 15 14 14 15 14 14 14 13 13 13 13 13 13 12 12 12 12 12 13

GFSFLT2_850_temp_129.txt.gz
Temp
18 18 18 18 18 19 18 18 18 19 19 19 19 19 18 17 17 17 17 17 16 16 16 16 16 16 16 16 15 15 14 15
19 18 18 17 17 18 18 18 18 18 18 18 18 18 18 17 17 16 16 16 16 16 16 16 16 16 16 16 16 15 14 15
19 19 18 18 18 18 18 18 17 17 17 18 18 17 17 17 16 16 16 16 16 16 16 16 16 16 16 16 15 15 14 14
19 18 18 18 18 17 17 17 17 17 17 17 17 17 17 17 16 16 16 16 16 16 16 16 16 16 16 16 15 15 14 14
18 18 17 17 17 17 16 17 17 17 17 16 17 17 17 16 16 16 15 15 15 16 16 16 16 16 15 15 15 14 13 14
17 18 17 16 17 17 17 16 16 16 17 16 16 17 17 16 16 16 16 16 16 16 16 16 15 15 15 14 14 14 14 13
16 17 17 17 16 16 17 16 17 16 16 16 16 16 16 16 16 15 15 15 15 15 15 15 15 15 14 15 14 13 14 14
15 15 16 16 16 16 16 17 16 16 16 16 16 16 16 16 15 15 15 15 15 15 15 15 15 14 14 15 14 13 13 14
13 15 15 15 16 16 16 16 16 16 16 16 16 16 16 15 15 15 15 15 15 15 14 14 14 14 14 15 14 14 13 13
13 13 14 15 15 15 16 16 15 15 16 16 16 16 16 15 15 15 15 15 14 14 14 14 14 14 14 14 14 14 14 14
12 13 13 14 15 15 14 16 16 15 15 15 15 16 15 16 16 15 15 15 14 14 14 14 14 14 14 15 15 15 15 14
7 8 10 11 12 14 14 14 15 15 14 14 15 15 15 15 16 15 15 15 15 14 14 14 14 14 14 14 14 14 15 14
5 4 7 8 10 12 13 14 13 13 15 14 14 15 15 16 15 15 15 15 15 15 15 14 14 14 14 14 14 14 14 14
2 1 3 6 6 8 8 10 13 12 12 14 14 15 16 16 15 15 15 15 14 15 14 14 14 14 14 14 14 14 14 13
-2 -2 -1 3 5 7 8 9 10 13 12 12 13 14 15 15 15 15 15 14 15 15 14 14 14 14 13 14 13 13 13 14
-4 -2 -1 1 4 4 6 8 9 12 13 12 12 13 14 15 14 14 14 14 14 15 14 14 14 14 13 13 14 14 14 14
-4 -2 -2 -0 2 3 3 5 7 11 13 14 12 12 13 15 15 14 15 14 14 14 13 12 13 13 13 13 13 14 14 13
-4 -3 -2 -1 -0 2 1 3 6 9 11 13 13 12 12 14 15 14 13 13 14 13 12 12 13 13 13 13 13 13 14 14
-3 -3 -2 -1 -1 0 1 3 4 6 10 12 10 10 10 13 14 15 15 14 13 14 13 13 13 13 12 12 12 13 13 13
-4 -3 -3 -2 -1 0 2 3 5 7 8 8 9 10 11 13 14 15 15 14 12 13 13 13 13 13 12 12 12 12 12 12

GFSFLT2_850_temp_132.txt.gz
Temp
19 19 19 18 17 17 18 18 18 18 18 18 18 18 18 17 17 17 17 17 16 16 16 16 16 16 16 15 15 15 15 15
19 18 18 18 18 18 18 18 18 18 18 18 18 17 17 17 17 17 17 17 16 16 16 16 16 16 16 16 15 15 15 15
18 18 17 16 17 17 17 17 17 17 17 17 17 17 17 17 16 16 16 16 16 16 16 16 15 15 16 16 15 15 14 14
16 16 16 16 16 16 17 17 17 17 17 17 17 17 17 17 17 16 16 16 16 16 16 15 15 15 15 15 15 15 15 14
16 16 16 16 16 15 15 16 16 16 17 17 17 17 16 16 16 16 16 16 16 16 15 16 16 15 15 15 15 15 14 14
16 16 16 16 16 16 16 14 15 16 16 16 17 17 16 16 16 16 16 16 16 16 16 16 15 15 15 15 15 14 14 14
16 16 16 16 16 16 16 16 15 15 15 16 16 16 16 16 16 16 16 16 16 16 16 15 15 15 15 14 14 14 14 14
14 15 15 15 15 15 16 16 15 14 14 15 16 16 16 16 16 16 16 16 16 16 16 15 15 15 15 15 14 14 13 14
13 14 14 14 14 15 15 16 16 15 15 14 15 16 15 15 15 15 16 15 15 15 15 15 15 14 15 14 15 14 14 14
12 12 13 13 14 14 14 14 15 16 15 15 14 15 16 15 15 15 16 15 15 15 15 15 14 14 14 14 14 14 14 14
9 9 9 11 11 12 13 14 14 15 15 15 14 14 15 16 15 15 15 15 15 15 14 14 14 14 14 15 14 14 14 14
7 7 5 6 8 9 11 12 13 13 15 15 14 14 14 15 15 15 15 14 14 15 14 14 14 14 14 15 14 14 14 14
3 3 4 2 4 6 8 10 12 12 14 15 15 13 13 14 15 15 15 15 15 15 14 14 14 14 14 14 14 14 14 14
2 1 1 0 1 3 4 6 10 11 12 15 15 14 12 13 14 15 15 15 15 15 15 14 14 14 14 14 13 13 14 14
0 -0 -1 -0 1 1 3 4 6 9 11 13 14 13 13 12 13 14 15 15 15 15 15 14 14 14 14 14 13 14 13 14
-2 -2 -2 -2 -1 -1 0 1 3 7 9 11 13 12 13 13 12 13 14 15 15 15 15 14 14 14 13 13 14 14 13 13
-3 -3 -3 -3 -3 -2 -1 -1 -0 1 6 9 11 13 13 13 12 12 13 14 15 15 14 14 14 14 14 13 13 14 14 14
-4 -3 -2 -3 -3 -3 -2 -1 0 1 2 8 10 11 12 12 11 12 12 13 14 14 15 14 14 14 14 13 13 13 14 14
-4 -3 -3 -4 -3 -2 -2 -1 0 2 2 5 6 10 11 9 10 11 12 12 13 14 14 14 14 14 14 13 13 13 13 13
-4 -4 -4 -4 -3 -2 -2 -1 1 2 3 4 6 8 9 9 10 10 10 10 13 13 13 13 13 13 12 12 13 13 13 13

GFSFLT2_850_temp_138.txt.gz
Temp
17 15 15 15 15 15 16 15 16 16 16 17 17 17 16 16 16 16 16 16 16 16 16 16 16 16 16 15 16 16 16 15
17 16 16 16 16 15 14 15 15 15 15 16 16 16 16 16 16 16 16 16 16 16 16 16 16 16 16 16 15 15 15 15
16 16 16 16 16 16 16 15 15 15 14 15 15 15 16 16 16 16 16 16 16 16 16 16 16 16 15 15 15 15 15 15
15 16 16 16 16 16 16 16 16 15 15 14 14 14 15 16 16 16 16 15 15 16 16 15 15 16 16 15 15 15 15 15
14 15 15 15 15 15 16 16 16 16 16 15 15 14 14 15 15 15 15 15 15 15 15 15 15 15 16 15 15 15 15 15
14 14 14 15 15 15 15 15 16 16 16 16 16 15 14 14 14 15 15 15 15 15 15 15 15 15 15 15 15 15 15 15
13 13 14 14 15 15 15 15 15 15 16 15 16 15 15 14 14 15 15 15 15 15 15 15 15 15 15 15 15 15 15 15
12 13 13 14 14 14 15 15 15 15 15 16 15 15 15 14 14 14 15 15 15 15 15 15 15 15 15 15 15 15 15 15
11 12 12 13 14 14 14 14 15 15 15 15 15 15 15 14 15 13 14 15 15 15 14 14 15 15 15 15 15 15 15 14
10 10 11 11 11 12 12 12 13 13 13 13 14 14 14 14 14 15 14 14 14 15 14 14 14 14 15 15 14 15 14 14
8 9 9 9 9 9 9 9 9 10 10 11 12 12 13 13 14 14 15 13 14 15 15 14 14 14 14 14 14 14 14 14
6 6 7 6 6 6 7 7 7 7 7 8 8 10 11 12 13 13 12 13 13 14 15 15 14 14 14 14 14 14 14 14
4 4 3 3 3 3 3 4 4 4 6 6 6 7 9 10 10 11 11 11 12 14 13 14 14 14 14 14 14 14 14 14
3 3 2 1 0 -0 -0 -1 -0 -0 -0 4 5 6 7 8 9 9 9 11 12 12 13 13 13 13 13 13 12 12 13 13
2 1 0 -1 -1 -1 -1 -1 -2 -2 -3 -1 2 4 5 6 8 8 8 10 11 11 13 13 13 13 14 13 12 13 13 13
0 -0 -1 -2 -2 -4 -5 -5 -4 -3 -3 -3 -2 0 3 4 6 8 7 9 10 11 12 12 13 12 13 12 14 14 13 13
-1 -3 -2 -2 -3 -4 -5 -5 -4 -4 -3 -2 -2 -1 -0 2 5 8 7 7 10 12 11 11 12 13 14 14 13 14 14 15
-3 -2 -2 -3 -4 -5 -6 -6 -5 -4 -3 -1 -1 -1 -0 1 4 6 7 8 10 11 13 12 11 12 13 14 14 13 14 14
-2 -3 -3 -4 -4 -6 -5 -6 -6 -5 -4 -3 -1 -0 0 1 2 4 6 9 10 11 11 12 9 11 11 14 14 14 14 14
-1 -3 -3 -4 -5 -6 -6 -6 -6 -5 -4 -2 -1 -1 1 2 3 3 6 9 10 11 12 13 12 11 11 13 14 14 14 14

GFSFLT2_850_temp_141.txt.gz
Temp
16 15 15 15 15 15 15 15 15 15 15 15 15 15 16 16 16 16 16 16 16 16 16 16 16 17 16 16 16 16 15 15
16 16 16 16 16 16 16 15 15 15 15 15 15 14 15 15 16 16 16 15 16 16 16 16 16 16 16 16 16 15 15 15
16 16 16 16 16 16 16 16 16 16 16 15 15 14 14 14 15 16 16 16 15 15 15 16 16 16 16 16 15 16 15 15
15 15 15 16 15 15 15 16 16 16 16 16 15 15 15 14 14 14 15 15 15 15 15 15 15 15 16 15 15 15 15 15
14 14 14 15 15 16 15 15 15 16 15 16 16 16 15 15 15 14 14 14 15 15 15 15 15 15 15 15 15 15 15 15
13 13 14 14 14 14 15 15 15 15 16 15 15 16 16 16 15 15 14 14 14 15 15 15 15 15 15 15 15 15 15 15
12 13 13 14 14 14 14 15 15 15 15 15 15 15 15 15 15 15 15 15 14 14 15 15 15 15 15 15 15 15 15 15
11 12 12 13 13 13 14 14 14 15 15 15 15 15 15 15 15 14 14 15 14 14 14 15 15 15 15 15 15 15 15 15
9 10 10 10 11 11 12 12 12 13 13 13 13 14 14 15 15 15 14 14 15 14 13 14 15 15 15 15 14 15 15 15
7 7 8 9 9 10 10 10 10 10 10 11 11 11 12 13 14 14 14 13 12 13 13 13 14 15 15 15 15 14 15 15
8 8 8 8 8 8 8 8 8 8 9 9 9 9 9 10 12 13 14 13 12 12 12 13 13 14 15 14 15 15 14 14
6 6 6 6 6 6 6 6 6 6 6 7 7 7 7 8 10 11 12 12 11 12 12 12 13 13 14 15 14 14 14 14
5 5 5 4 4 4 5 4 5 5 5 5 5 6 6 6 7 8 10 10 10 10 12 12 12 13 13 13 14 14 14 14
4 4 3 2 1 0 -1 -2 -1 -1 -0 -1 2 3 3 4 5 7 7 7 8 10 10 11 11 12 12 13 12 12 13 13
3 3 2 1 -0 -1 -3 -3 -4 -4 -3 -2 -2 -1 -1 -0 2 4 5 4 6 8 9 11 12 11 12 13 13 13 13 12
2 2 2 2 0 -1 -5 -6 -5 -5 -3 -2 -2 -1 -1 -1 -1 2 3 2 4 7 9 10 12 10 11 13 13 14 13 13
2 3 2 1 -0 -5 -6 -6 -6 -5 -5 -4 -1 0 0 -0 -0 -0 1 2 6 8 9 10 10 11 12 11 12 13 13 14
2 2 1 1 -2 -5 -6 -6 -6 -6 -6 -5 -3 -2 -1 1 0 0 2 2 6 8 9 10 11 10 12 11 11 12 13 13
2 1 0 0 -2 -3 -6 -7 -6 -7 -6 -5 -5 -3 -1 0 1 1 1 2 5 8 9 9 11 12 11 11 11 12 13 13
0 0 -0 -1 -1 -2 -5 -7 -7 -7 -6 -5 -4 -3 -2 -1 1 2 2 3 4 7 9 9 10 12 11 13 11 11 12 13

GFSFLT2_850_temp_147.txt.gz
Temp
17 17 17 16 16 16 17 16 16 16 16 15 15 15 16 16 16 16 16 15 16 16 16 16 16 16 16 16 16 16 16 16
17 17 17 16 16 16 16 16 16 16 16 16 15 15 15 15 15 15 16 16 15 16 16 16 16 16 16 16 15 16 16 16
16 16 16 16 16 16 16 16 16 16 16 16 16 16 15 15 15 14 14 15 15 15 15 15 15 15 16 16 15 15 14 15
15 16 16 15 15 16 16 16 15 15 15 16 16 16 16 16 16 15 15 15 15 15 15 15 15 14 15 16 15 15 15 15
13 14 15 15 15 15 15 15 15 15 15 16 16 16 16 16 16 16 16 15 14 14 15 15 15 14 15 16 16 16 15 15
12 13 14 14 14 14 14 14 14 14 15 14 15 15 15 16 16 16 15 14 16 14 15 15 14 15 15 16 16 16 16 15
11 12 12 12 13 12 12 13 12 13 13 13 12 14 14 14 15 15 15 15 13 14 15 15 14 14 15 15 16 16 16 15
10 11 11 11 11 11 11 11 11 11 10 8 11 11 11 12 12 13 13 13 12 13 14 15 14 14 14 15 15 16 16 16
8 7 8 9 9 9 9 7 8 7 7 6 6 6 6 7 8 10 11 11 11 12 13 13 14 14 14 14 15 15 16 16
5 5 5 7 7 7 5 4 4 4 4 3 3 3 3 3 4 4 5 8 8 9 11 13 13 13 15 14 14 15 15 16
4 3 3 5 4 3 3 3 3 3 2 3 2 2 1 2 2 3 3 4 6 7 9 10 11 13 13 14 14 14 15 15
3 3 2 2 2 2 2 2 2 1 1 1 0 0 0 0 0 1 1 2 3 5 7 9 9 11 13 13 13 14 14 15
3 3 2 2 2 1 2 1 1 1 0 -0 -1 -2 -2 -2 -2 -1 -1 0 2 3 5 6 7 9 11 12 13 13 13 14
3 2 2 2 1 1 0 -0 0 -0 -0 -2 -2 -2 -3 -3 -2 -1 -1 -0 1 1 3 4 6 8 10 11 12 12 13 13
2 2 2 1 -0 0 -0 -0 -1 -1 -3 -3 -3 -4 -3 -2 -2 -2 -1 -1 -0 0 1 3 4 7 9 11 12 13 13 13
2 1 1 1 -0 -1 -2 -2 -3 -3 -4 -4 -4 -4 -3 -3 -2 -2 -1 -1 0 0 1 2 2 5 7 10 11 12 13 13
1 1 1 0 -1 -2 -3 -3 -4 -4 -5 -5 -5 -5 -5 -4 -4 -3 -2 -1 0 1 1 1 2 4 6 8 11 11 12 12
0 0 1 -1 -1 -3 -4 -4 -4 -4 -5 -6 -6 -5 -5 -4 -3 -2 -1 -1 -0 1 1 1 2 3 5 7 9 11 11 11
-1 -1 -0 -1 -2 -3 -4 -4 -4 -4 -6 -6 -6 -6 -6 -5 -4 -3 -1 0 1 1 1 2 2 3 4 6 8 10 11 11
0 -2 -2 -2 -3 -4 -4 -2 -4 -5 -5 -7 -7 -7 -6 -6 -5 -4 -2 -1 1 2 2 2 2 4 4 6 8 9 10 10

GFSFLT2_850_temp_150.txt.gz
Temp
17 17 17 16 16 16 16 16 16 16 16 17 17 16 15 16 16 15 15 15 15 16 15 16 16 16 16 16 16 16 16 16
16 17 17 17 17 16 16 16 16 16 16 16 16 16 16 15 15 15 16 15 15 15 16 15 15 15 15 15 15 16 16 17
16 16 16 16 16 16 16 16 16 16 16 16 16 16 16 16 16 16 15 15 15 15 15 15 15 15 15 15 15 15 16 17
14 15 16 16 16 15 16 15 15 15 15 16 16 16 16 16 16 16 16 16 16 15 15 15 15 15 15 15 15 15 15 16
13 14 14 15 15 15 15 14 14 14 14 14 15 15 16 16 16 16 16 16 16 16 15 15 15 15 15 15 16 15 16 16
12 13 14 14 14 14 14 14 13 13 13 13 13 14 14 14 15 15 16 15 15 14 15 15 14 15 15 15 15 15 15 16
11 12 13 13 13 13 13 13 12 12 11 10 10 11 12 12 13 13 14 14 14 13 13 13 14 14 14 14 15 15 16 15
10 11 12 12 12 12 12 11 11 11 10 8 7 7 7 8 9 10 12 12 12 11 12 13 13 14 14 14 14 15 15 16
9 9 10 10 10 10 10 9 9 9 7 6 6 5 4 4 5 5 6 8 9 10 11 12 13 13 14 15 15 15 15 15
6 7 7 8 8 8 7 6 7 5 5 5 3 3 3 3 3 3 2 3 5 7 8 9 11 12 13 13 15 15 15 16
5 5 6 7 6 6 5 5 5 4 4 2 2 2 2 1 0 0 1 2 3 4 5 6 7 10 11 12 13 15 14 15
4 4 4 4 3 4 4 3 3 2 1 1 0 0 -1 -2 -2 -2 -1 -1 0 2 3 4 5 6 9 10 12 13 14 14
4 3 3 3 3 3 3 4 2 2 1 1 0 -2 -2 -3 -3 -2 -2 -2 -1 -0 0 1 5 5 6 9 11 12 12 14
3 3 3 2 2 1 1 2 1 0 1 1 -1 -3 -4 -3 -3 -3 -2 -2 -1 -1 -0 0 1 4 5 6 8 11 12 13
3 2 2 2 1 1 3 3 2 1 1 -1 -3 -4 -4 -4 -4 -3 -3 -2 -2 -1 -1 0 1 1 4 4 9 11 12 13
2 2 2 1 0 1 1 1 0 -1 -2 -2 -4 -5 -5 -5 -5 -4 -4 -3 -2 -2 -1 -0 0 1 2 5 6 7 9 13
1 1 1 0 -1 -0 -1 -2 -1 -1 -2 -4 -3 -4 -6 -6 -6 -4 -3 -2 -2 -2 -1 -1 1 1 1 3 5 7 8 9
1 0 0 -1 -1 -2 -2 -1 -2 -1 -4 -4 -3 -5 -6 -6 -6 -4 -4 -3 -2 -2 -1 -0 0 2 1 1 3 4 7 9
0 -1 -1 -1 -1 -2 -2 -3 -2 -3 -4 -4 -2 -4 -6 -7 -6 -5 -4 -3 -2 -1 -1 0 2 2 2 2 2 4 5 7
1 -1 -0 -0 -0 -3 -3 -1 -3 -4 -4 -4 -2 -5 -7 -7 -7 -6 -4 -3 -2 -2 -1 0 2 3 3 2 3 4 5 6

GFSFLT2_850_temp_156.txt.gz
Temp
14 15 15 15 16 16 16 16 16 16 16 16 16 16 16 16 16 15 15 15 15 15 15 15 15 15 15 15 15 15 15 16
14 14 15 15 15 15 15 15 15 15 16 16 16 16 15 15 16 16 15 15 15 15 15 15 15 14 14 15 15 15 15 16
13 14 14 14 14 15 15 15 15 15 15 15 15 15 16 15 15 15 15 15 15 16 16 15 15 15 14 14 14 14 15 15
13 13 13 13 14 14 14 14 14 14 14 14 14 15 15 15 15 15 15 15 15 15 15 15 15 15 15 14 13 14 14 15
12 12 12 13 13 13 13 13 13 13 13 13 13 13 14 14 14 15 15 15 15 15 15 15 15 15 15 14 14 14 14 14
11 12 12 12 12 12 12 12 12 12 12 12 12 13 13 13 13 13 13 13 14 14 14 14 14 14 14 14 14 14 13 14
11 10 10 10 11 11 11 11 11 11 11 11 11 11 11 11 11 11 11 11 11 12 13 13 14 13 13 13 13 13 13 13
9 9 9 9 10 10 10 10 10 10 10 9 9 9 9 10 10 10 9 10 10 10 11 11 12 12 13 13 13 13 13 13
9 8 9 9 10 10 9 9 9 9 9 8 8 8 8 8 8 9 8 8 8 8 9 9 10 10 11 12 12 12 12 12
8 8 9 9 9 9 9 8 8 8 8 8 7 7 7 7 7 7 6 6 6 5 6 7 8 9 10 10 10 11 12 12
8 8 8 8 8 8 7 7 7 7 7 7 6 6 6 5 5 4 3 2 2 1 -0 -0 2 5 7 9 10 10 11 11
7 8 8 7 7 7 6 6 6 6 6 6 6 5 5 5 4 3 1 -0 -0 -0 -1 -2 -1 -1 1 6 9 9 10 10
7 8 8 7 7 7 7 6 6 6 5 5 5 4 4 3 3 1 -0 -2 -2 -2 -2 -2 -1 -1 -1 1 6 8 9 10
5 6 6 6 6 6 5 5 5 5 5 4 4 4 3 2 1 -0 -1 -3 -2 -2 -2 -2 -2 -1 -1 -1 2 6 7 8
5 5 5 6 5 5 5 5 5 5 5 4 3 3 3 2 -0 -1 -2 -3 -2 -2 -2 -2 -2 -2 -1 -1 1 3 2 7
4 4 4 4 4 4 4 4 4 4 3 3 2 3 2 0 0 -1 -4 -3 -3 -2 -2 -2 -2 -1 -1 -0 -0 0 1 2
4 4 3 3 3 3 3 3 3 3 3 2 2 2 1 0 1 -2 -5 -3 -3 -3 -2 -2 -2 -2 -1 -1 -1 0 1 1
3 3 3 2 3 3 3 3 3 2 2 1 1 1 -1 2 -0 -4 -4 -3 -3 -3 -3 -2 -2 -2 -2 -1 -1 -1 0 1
3 3 2 2 2 2 2 2 2 1 0 0 1 -0 0 1 -2 -4 -4 -3 -3 -4 -3 -3 -3 -2 -2 -1 1 0 1 1
2 2 2 1 1 1 1 1 0 -0 -0 -1 -1 -1 -0 -1 -3 -5 -4 -2 -3 -4 -5 -4 -3 -3 -2 -1 1 0 0 1

GFSFLT2_850_temp_159.txt.gz
Temp
15 15 15 16 16 16 16 16 16 16 16 16 16 16 15 15 15 15 15 15 14 14 14 14 14 14 15 15 14 14 15 16
15 15 15 15 15 15 15 15 15 15 15 15 15 15 15 15 15 15 15 15 15 15 15 14 14 14 14 14 14 14 14 15
14 13 13 13 14 14 14 14 14 14 14 14 14 15 15 15 15 15 15 15 15 15 15 15 15 15 14 14 14 13 13 14
12 12 12 13 13 13 13 13 13 13 13 13 13 14 14 14 14 14 14 14 14 14 14 15 14 15 15 15 14 13 13 14
11 12 12 12 13 13 12 12 12 12 12 13 13 13 13 13 13 14 14 14 14 14 14 14 14 14 15 15 15 14 14 13
10 11 11 12 12 12 12 12 12 12 12 12 12 12 12 12 12 12 13 13 13 13 14 14 14 13 13 14 14 14 14 14
10 10 10 10 10 10 10 11 11 11 11 11 11 11 11 11 11 12 12 12 12 13 13 13 13 13 13 13 13 13 13 13
9 9 9 9 10 10 10 10 10 10 10 10 10 10 10 10 10 11 11 11 11 11 11 11 12 12 12 12 12 13 13 13
9 9 9 9 9 9 9 9 9 9 9 9 9 9 9 9 9 10 10 10 10 10 9 9 9 9 9 10 11 12 12 12
8 8 8 8 8 8 8 8 8 8 8 8 8 8 8 8 8 8 8 8 8 7 7 6 5 6 7 8 8 10 11 12
8 8 8 7 7 7 8 8 8 8 7 7 7 7 7 7 7 7 7 7 5 4 3 3 2 1 2 4 5 7 9 10
7 7 7 7 7 7 7 7 7 7 7 7 6 6 6 6 6 6 5 4 3 1 -0 -1 -1 -1 -1 -0 3 6 7 9
7 7 7 7 7 7 7 7 6 6 6 6 6 5 5 5 5 5 3 2 -0 -2 -2 -2 -2 -2 -2 -1 3 5 5 7
7 7 6 6 6 6 6 6 6 5 5 5 5 4 4 4 4 3 2 1 -0 -0 -1 -2 -1 -1 -2 -2 -0 3 3 5
6 5 6 6 6 5 5 5 5 5 5 4 4 4 3 3 3 2 1 -1 0 -0 -3 -3 -2 -0 -1 -2 -1 1 -0 4
6 6 6 6 5 5 5 5 5 4 4 4 3 3 2 2 1 1 -0 -0 0 -1 -4 -3 -3 -3 -2 -2 -1 -1 -1 0
6 6 5 4 4 3 4 4 3 3 3 3 2 2 1 1 1 1 -0 1 -1 -2 -4 -3 -3 -4 -3 -3 -2 -1 -0 -0
5 5 4 3 3 3 3 3 3 2 2 2 2 1 1 0 -0 -0 0 1 -1 -3 -4 -4 -3 -4 -3 -2 -3 -3 -2 -1
5 4 3 2 2 2 2 2 1 1 1 1 1 0 0 -0 -1 -1 0 -0 -1 -3 -4 -3 -3 -3 -3 -3 -2 -2 -1 -1
3 2 1 1 1 1 1 1 1 0 -0 -0 -1 -1 -1 -2 -2 -2 -1 -1 -2 -3 -3 -3 -4 -4 -3 -3 -2 -2 -1 -1

GFSFLT2_850_temp_162.txt.gz
Temp
15 15 16 15 15 15 15 15 15 16 16 16 16 15 15 15 15 15 15 15 15 15 14 14 14 14 14 14 14 14 14 14
15 15 15 15 15 15 15 15 15 15 16 16 15 15 15 15 14 14 14 14 14 15 15 15 14 14 14 14 14 14 14 14
14 14 14 14 14 14 14 15 15 15 15 15 15 14 14 14 14 14 14 14 14 14 14 14 14 14 14 14 14 14 14 14
15 15 14 14 14 14 14 15 14 14 14 14 13 13 13 13 13 13 13 14 13 13 13 13 13 14 14 14 14 14 14 14
14 13 13 13 13 13 13 13 13 13 12 12 12 12 12 12 13 13 13 13 13 13 14 14 13 13 14 14 14 14 14 14
12 12 12 12 12 11 11 11 12 12 12 12 12 12 12 12 12 12 12 13 13 13 13 13 13 13 13 13 14 14 14 14
11 11 11 11 10 10 11 11 11 11 11 11 11 11 11 11 11 11 11 12 12 12 12 12 12 12 12 12 12 13 13 13
10 10 9 9 10 10 10 10 10 10 10 10 10 10 10 10 10 10 10 10 11 11 11 11 11 11 11 10 11 12 12 13
8 8 8 8 9 9 9 9 9 9 9 9 9 9 9 9 9 9 9 9 9 9 9 9 9 9 8 8 8 9 10 11
8 8 7 8 8 8 8 8 8 8 8 8 8 8 8 8 8 8 8 8 8 8 8 7 7 7 6 6 7 7 8 10
7 7 8 8 7 7 7 7 7 7 7 7 7 6 6 7 7 7 7 7 7 6 5 3 3 3 2 2 5 6 7 7
7 7 7 7 7 7 7 7 6 6 6 6 6 6 6 6 6 6 6 6 5 3 2 0 -0 -1 -1 1 4 5 4 5
7 7 7 6 6 6 6 6 6 6 6 6 5 5 5 5 5 5 5 4 3 2 0 0 1 -0 -1 0 4 4 2 3
7 7 7 6 6 6 6 5 5 5 5 4 4 4 4 4 4 4 4 3 2 1 -1 -1 1 -0 -3 -1 -1 2 3 4
7 7 6 6 6 5 5 5 5 4 4 4 3 3 3 3 3 3 3 2 1 -0 -2 -0 -2 -0 -2 -3 -2 -1 -1 2
5 6 6 5 6 5 5 5 5 4 4 3 3 2 2 2 2 2 2 2 1 -1 -3 -1 -1 -2 -3 -3 -2 -2 -1 -1
5 6 5 5 5 5 5 4 3 3 3 2 2 1 1 2 2 2 1 1 0 -1 -1 -1 -2 -3 -5 -4 -2 -1 -1 -2
4 5 5 5 4 4 4 3 2 1 2 2 2 2 1 1 1 1 0 0 -0 -1 -2 -2 -2 -3 -4 -5 -4 -5 -5 -4
4 4 4 4 4 4 2 1 2 1 1 1 1 1 1 0 -0 -0 -0 -1 -1 -2 -1 -1 -3 -4 -4 -4 -5 -5 -5 -5
3 3 4 4 3 1 1 1 0 0 1 0 -0 -0 -1 -1 -1 -1 -1 -2 -2 -3 -2 -2 -3 -4 -4 -4 -4 -5 -5 -6

GFSFLT2_850_temp_168.txt.gz
Temp
14 14 15 15 15 15 15 15 16 16 16 16 16 15 15 15 15 15 14 14 14 14 14 15 15 15 15 15 15 15 14 13
14 14 14 14 14 14 15 15 15 15 15 14 14 14 14 14 14 14 14 14 14 14 14 14 14 14 14 15 15 15 15 13
14 14 14 14 14 14 14 14 14 14 14 14 14 14 13 13 13 13 13 13 13 13 13 13 14 14 14 14 14 14 12 13
13 13 13 13 13 13 13 13 13 13 13 13 13 13 13 12 12 12 13 13 13 13 13 13 13 13 13 14 13 14 14 14
13 12 12 12 12 12 12 12 12 13 13 13 12 12 12 12 12 12 12 12 12 12 12 13 13 13 13 13 13 13 12 12
12 12 12 11 11 11 12 12 12 12 12 12 12 11 11 11 11 11 11 11 11 11 11 12 12 12 12 12 13 13 12 11
11 11 11 11 11 11 11 12 12 12 12 12 11 11 11 11 11 11 11 11 11 11 11 11 11 11 11 11 12 12 12 11
11 11 11 11 11 11 11 11 11 11 11 11 11 10 10 10 9 9 9 9 10 10 10 10 10 9 9 8 10 9 9 9
11 10 10 10 11 11 11 11 11 10 10 10 9 9 9 9 9 9 8 8 8 8 9 8 8 6 5 6 6 4 4 4
10 10 10 10 10 10 10 10 10 10 9 9 9 8 8 8 8 8 7 7 8 8 7 6 4 3 3 4 4 4 4 4
9 9 9 10 10 10 10 9 9 9 8 8 7 7 7 7 6 6 6 7 7 7 6 5 2 1 2 4 2 3 4 4
9 8 8 9 9 9 9 8 8 7 7 7 7 6 6 6 6 6 6 5 5 5 5 3 -1 -1 2 2 2 3 4 4
7 8 8 8 7 6 5 5 7 7 6 6 5 5 5 5 5 4 4 4 4 4 4 3 -1 -3 -2 2 3 4 3 2
7 7 7 7 7 7 6 6 6 5 5 4 4 4 4 4 4 3 3 3 2 3 3 2 -1 -3 -3 -2 2 4 3 2
6 7 7 7 7 7 6 6 5 3 3 3 4 4 4 4 3 3 3 3 2 2 1 1 -0 -3 -4 -4 -3 -1 -3 2
6 7 6 7 6 6 5 2 2 4 3 3 3 3 3 3 2 2 2 1 1 1 -1 -1 -1 -3 -3 -4 -4 -4 -4 -3
6 6 7 6 6 5 3 3 4 4 3 2 3 3 3 2 2 2 1 0 -0 -0 -1 -1 -4 -3 -5 -5 -5 -4 -3 -5
6 7 6 5 5 5 4 4 4 2 2 0 2 2 1 1 1 1 1 0 -0 -1 -4 -5 -6 -6 -5 -6 -6 -6 -6 -7
5 4 4 5 5 4 4 4 3 3 2 2 1 1 0 1 1 -0 -1 -1 -1 -2 -3 -5 -6 -6 -6 -6 -7 -7 -7 -8
5 4 4 4 4 4 3 3 2 2 2 1 1 0 0 -0 -1 -1 -1 -1 -2 -3 -5 -5 -6 -6 -7 -7 -7 -7 -8 -8